Temp
25 25 25 25 25 25 25 25 26 26 26 26 26 26 26 26 26 26 26 26 26 26 26 26 26 25 26 26 26 26 25 25 26 25 25 26 26 25 26 26 26 26 26 26 26 26 26 27 27 27 27 27 27 27 27 28 28 28 28 28 28 28 28 28 27 26 27 27 27 27 27 27 27 27 27 28 28 28 28 28 28 28 28 28 28
25 25 25 25 25 25 25 25 26 26 26 26 26 26 26 26 27 27 27 26 26 26 26 26 26 26 26 26 26 26 26 26 26 26 26 26 26 26 26 26 26 26 26 26 26 26 26 26 26 26 26 26 27 27 27 28 27 28 28 28 28 28 28 28 27 27 27 27 27 27 27 27 27 27 27 27 27 28 28 28 28 28 28 28 28
26 26 25 26 26 26 25 26 26 26 26 27 27 27 27 27 27 27 27 27 27 26 26 26 26 26 26 26 26 26 26 26 26 26 26 26 26 26 26 26 26 26 26 26 26 26 26 26 26 26 26 26 27 27 27 27 27 28 28 28 28 28 27 27 27 27 27 27 27 27 27 27 27 27 27 27 28 28 28 28 28 28 29 29 28
26 26 26 26 26 26 26 26 26 26 26 27 27 27 27 27 27 27 27 27 27 27 26 26 26 26 26 27 27 27 26 26 26 26 26 26 26 26 26 26 26 26 26 26 26 26 26 26 26 26 26 26 27 27 27 27 27 28 27 27 27 27 27 27 27 27 27 27 27 27 27 27 27 27 27 28 28 28 28 28 28 29 29 28 28
27 26 26 26 26 26 26 26 26 26 26 27 27 27 27 27 27 27 27 27 27 27 27 27 27 27 27 27 27 27 26 26 26 26 26 26 26 26 26 26 26 26 26 26 26 26 26 26 26 26 26 27 27 27 27 27 27 27 27 27 27 27 27 27 27 27 26 26 27 27 27 27 27 27 28 28 28 28 28 28 28 28 28 28 28
27 27 27 27 27 27 26 26 26 26 27 27 27 27 27 27 27 27 27 27 27 27 27 27 27 27 26 26 26 26 26 26 26 26 26 26 26 26 26 26 26 26 26 26 26 26 26 26 26 27 27 27 27 27 27 27 27 27 27 27 27 27 27 27 26 26 26 26 26 26 27 27 27 27 28 28 27 28 28 28 28 27 27 27 27
28 27 27 27 27 27 27 27 27 27 27 27 27 27 27 27 27 27 27 27 27 27 27 27 27 27 26 26 26 26 26 26 26 26 26 26 26 26 26 26 26 26 26 26 26 26 26 26 27 27 27 26 26 27 27 27 27 27 27 27 27 27 27 26 26 26 26 26 26 26 26 26 27 27 27 27 27 27 27 26 26 26 26 26 26
28 27 27 27 27 27 27 27 27 27 27 27 28 28 27 27 27 27 27 27 27 27 27 27 27 27 26 26 26 26 26 26 26 26 26 26 26 26 26 26 26 26 26 26 26 26 26 26 27 27 27 26 26 26 27 27 27 27 27 27 27 26 26 26 26 26 26 26 26 26 26 26 27 27 27 27 27 27 26 25 25 25 25 26 26
28 27 27 27 27 28 28 27 28 28 28 28 28 28 28 27 27 27 27 27 27 27 27 27 27 26 26 26 26 26 26 26 26 26 26 26 26 26 26 26 26 26 26 26 26 26 26 26 27 27 27 27 26 26 27 27 27 27 27 27 27 27 26 26 26 26 26 26 26 26 26 26 26 26 26 27 26 26 25 25 25 25 25 26 26
28 27 27 28 28 28 28 27 28 28 28 28 28 28 28 28 28 27 27 27 27 27 27 27 27 27 26 26 26 26 26 26 26 26 26 26 26 26 25 25 25 25 25 26 26 26 27 27 27 27 27 27 26 26 27 27 27 27 27 27 27 27 26 26 26 26 25 25 25 25 25 26 26 26 26 26 26 25 25 25 25 25 25 25 25
26 26 26 26 27 27 27 27 27 27 27 27 28 28 28 28 28 27 27 27 27 27 27 27 27 27 27 27 26 26 26 26 26 26 26 26 25 25 25 25 25 26 26 26 26 27 27 27 26 26 27 27 26 26 27 27 27 26 26 26 26 26 26 26 25 25 25 25 25 25 25 25 25 25 25 25 25 24 24 24 24 24 24 23 23
23 23 24 25 26 26 27 27 27 27 27 27 27 27 27 27 28 27 27 27 27 27 27 27 27 27 27 26 26 26 26 26 26 26 26 26 25 25 25 25 26 26 26 26 26 26 26 26 26 26 26 26 26 26 26 26 26 26 26 26 26 26 25 25 25 25 25 25 24 24 24 24 25 25 24 24 24 24 24 24 24 23 23 23 23
23 24 25 26 26 26 27 27 27 27 27 27 27 27 27 27 27 27 27 27 27 27 27 26 26 26 26 26 26 26 26 26 26 26 26 26 25 25 25 25 26 26 26 26 26 26 26 26 26 26 26 26 26 26 26 26 26 25 25 25 25 25 25 25 25 24 24 24 23 23 24 23 24 24 24 23 24 24 24 24 23 23 23 23 23
23 24 26 26 26 26 26 26 27 27 26 26 26 27 27 27 27 27 27 27 27 26 26 26 26 26 26 26 26 25 25 25 25 26 26 26 25 25 25 25 25 26 26 25 25 25 25 25 25 25 25 25 26 25 25 25 25 25 25 25 25 25 25 25 24 24 24 23 23 23 23 23 23 23 23 23 23 23 23 23 23 23 22 22 22
22 23 25 25 25 25 25 25 25 25 25 26 26 26 26 26 26 26 26 26 26 26 25 26 25 25 25 25 25 25 25 25 25 25 25 25 25 25 25 25 25 25 25 25 24 24 24 24 24 24 24 24 25 25 25 24 24 24 24 24 24 24 24 24 24 23 23 23 23 23 23 23 23 23 23 23 23 23 23 22 22 22 22 22 22
20 22 24 24 24 24 24 23 23 23 24 25 25 25 25 24 24 25 25 25 25 25 25 25 24 24 24 24 25 25 25 24 24 24 25 24 24 24 24 25 24 24 24 24 23 23 23 23 23 23 23 23 24 24 24 24 23 23 23 23 24 24 23 23 23 23 22 23 23 23 23 23 23 22 22 22 22 22 22 22 22 22 22 21 21
20 21 22 23 23 23 22 23 23 22 22 23 24 24 23 23 23 24 24 24 24 23 24 24 23 23 23 23 23 24 24 24 24 24 24 24 24 24 24 24 23 23 23 23 23 23 22 22 22 22 22 22 22 22 23 23 23 23 23 23 23 23 22 22 22 22 23 23 23 22 22 22 22 22 22 22 22 22 22 22 22 21 21 20 20
19 20 21 21 21 21 21 23 23 21 21 22 22 22 22 22 22 23 24 24 23 22 22 22 22 22 22 22 22 22 23 23 23 23 23 23 24 24 23 23 23 22 22 22 22 22 21 21 21 22 22 22 22 22 22 22 22 22 22 22 22 22 22 22 22 22 22 22 22 22 22 22 22 22 22 22 21 21 21 21 21 21 21 20 20
19 19 21 21 20 20 21 22 22 21 21 20 20 21 21 21 21 22 23 24 22 20 20 21 21 20 20 20 20 21 21 21 21 22 22 23 23 23 23 23 22 21 21 21 20 20 20 21 21 21 21 21 22 22 22 22 22 22 21 21 21 21 21 21 21 21 22 22 22 22 22 22 22 22 21 21 21 21 21 21 21 21 20 20 20
18 19 20 21 20 19 20 20 20 20 20 20 19 20 20 21 22 23 23 22 19 19 19 20 19 19 19 19 19 19 20 20 20 21 22 22 23 23 22 22 22 21 21 20 20 19 20 20 20 21 21 21 22 22 22 22 22 22 21 21 21 21 21 21 21 21 21 21 22 22 22 22 22 21 21 21 21 21 21 21 20 20 20 19 19
19 18 19 20 19 19 19 19 19 20 20 19 19 20 20 20 21 22 22 20 18 18 18 19 18 18 17 18 18 18 18 19 19 20 21 21 22 22 22 21 21 20 20 20 19 19 19 20 21 21 21 21 21 22 22 22 21 21 21 20 20 20 20 20 20 21 21 21 21 21 21 21 21 21 21 21 21 20 20 20 20 20 20 19 19
19 19 19 18 18 18 18 18 19 19 19 19 19 19 19 20 20 20 20 19 18 18 17 17 17 17 17 17 17 17 17 17 18 19 19 20 20 21 21 20 20 20 20 19 19 19 20 20 21 21 21 21 21 22 22 21 21 20 20 20 20 20 20 20 20 20 20 21 21 20 20 20 20 20 20 20 20 20 20 20 20 21 20 19 19
19 18 18 18 18 18 17 18 18 18 18 18 18 18 18 18 19 19 18 18 17 16 16 16 17 16 16 16 16 16 16 16 17 17 17 18 19 20 20 19 19 19 19 19 19 19 20 20 21 21 21 21 21 22 21 21 20 20 20 20 20 20 20 20 20 20 20 20 20 19 19 19 20 20 20 19 19 19 19 20 20 20 20 20 19
18 18 18 18 18 18 17 17 18 17 17 17 17 17 17 17 17 17 17 17 16 16 16 16 17 16 16 16 16 16 16 16 16 16 16 17 18 18 19 19 18 19 19 18 19 19 20 20 21 21 21 21 21 21 21 21 21 21 20 20 20 20 20 20 19 19 19 19 19 19 19 19 19 19 18 18 18 19 19 19 19 19 19 19 19
19 18 18 18 18 18 17 17 17 17 17 17 17 17 17 17 17 16 16 16 16 16 15 16 16 16 16 16 16 16 16 16 16 15 16 17 17 18 18 18 18 18 19 19 19 19 20 21 21 21 20 20 20 21 21 21 21 21 20 20 20 20 20 19 19 19 18 18 18 18 18 18 18 18 18 18 18 18 18 18 18 18 18 18 19
19 18 18 18 18 17 17 17 17 17 17 17 17 17 17 17 17 17 17 16 16 16 16 16 16 16 16 16 16 15 15 16 15 15 16 16 17 18 18 17 17 17 18 19 19 20 20 21 21 21 20 20 20 20 20 20 20 20 20 19 19 19 19 19 18 18 17 17 17 17 17 17 17 17 17 18 17 17 17 17 17 17 17 18 18
19 19 18 18 18 18 18 17 17 17 17 17 17 17 17 17 17 17 17 17 17 17 16 16 16 16 16 16 16 16 16 16 16 16 16 17 17 17 17 17 17 17 18 19 20 20 20 20 20 20 20 20 20 20 20 19 20 20 19 19 18 18 18 18 17 17 17 17 17 17 17 17 17 17 17 16 16 17 17 17 17 17 17 17 17
19 19 19 19 18 18 18 18 18 17 17 17 17 17 17 17 17 17 17 17 17 17 17 17 16 16 16 16 16 16 16 16 16 16 17 17 17 17 18 18 18 18 18 19 19 19 20 20 20 20 20 20 19 19 19 19 19 19 18 17 17 17 17 17 17 16 16 16 16 16 16 16 16 16 16 16 16 16 16 16 17 17 17 17 17
20 20 20 19 18 17 17 18 18 17 17 17 16 16 16 16 16 16 16 17 17 17 17 17 17 17 16 16 16 16 16 16 16 16 16 17 17 17 18 18 17 17 18 18 19 19 19 19 19 19 19 19 18 18 18 18 18 17 17 16 16 16 16 16 16 15 16 16 16 16 16 16 16 16 16 16 16 16 16 16 16 16 16 16 16
20 20 20 19 18 17 17 17 17 17 17 16 16 15 15 15 16 16 15 16 16 17 17 17 17 17 17 16 16 16 16 16 16 16 16 17 17 17 17 17 17 17 17 18 18 18 18 18 18 18 18 17 17 17 17 17 17 16 16 15 15 15 15 15 15 15 15 15 15 15 15 15 15 15 15 15 15 15 15 15 15 15 15 15 15
20 20 19 19 18 17 17 17 16 16 16 16 16 15 14 14 14 15 15 15 15 16 16 16 16 17 17 16 16 16 16 16 16 16 16 16 17 16 16 16 16 17 17 17 18 17 17 17 17 16 17 16 16 16 16 16 16 16 15 15 15 15 14 14 14 15 15 15 15 15 15 15 15 14 14 14 14 15 15 15 15 14 14 14 14
19 19 19 18 18 17 17 17 16 16 16 16 16 15 15 14 13 13 14 15 15 15 16 16 16 16 16 16 16 15 15 15 15 16 16 16 16 16 16 16 16 16 17 17 17 16 16 16 16 16 16 15 15 15 15 15 15 15 14 14 14 14 14 14 14 14 14 14 15 15 14 14 14 14 14 14 14 14 14 13 13 13 13 13 13
19 19 18 18 18 17 17 17 16 16 16 16 16 16 16 15 14 13 13 14 14 15 15 15 15 15 15 15 15 15 15 15 15 16 16 16 16 15 16 16 16 16 16 16 15 15 15 15 15 15 15 14 14 14 14 14 14 14 14 14 14 14 14 14 14 14 14 14 14 14 14 14 14 13 13 13 13 13 13 12 12 12 12 12 12
18 18 18 18 18 17 17 17 17 17 17 17 16 16 16 16 15 14 14 13 13 14 14 14 14 14 14 14 14 15 15 15 15 15 16 15 15 15 16 15 15 15 16 15 15 15 14 14 14 14 14 14 14 14 14 14 13 13 13 14 14 13 13 13 13 13 13 14 14 13 13 13 13 13 12 12 12 12 12 11 11 11 11 11 11
17 17 18 18 18 17 17 17 17 17 17 17 17 16 16 16 16 16 15 15 14 13 13 13 13 13 14 13 13 14 14 14 15 15 15 15 15 15 15 15 15 15 15 15 14 14 14 14 14 13 13 13 13 13 13 13 13 13 13 13 13 13 13 13 13 13 13 13 12 12 12 12 12 11 11 11 11 11 10 11 11 11 11 11 11
17 17 17 17 17 17 17 17 17 17 17 17 17 17 17 17 16 16 16 15 15 14 14 13 13 13 13 13 13 13 14 14 15 15 15 15 15 15 15 15 15 14 14 14 14 14 13 13 13 13 13 13 13 13 13 13 13 13 13 13 13 13 13 12 12 12 12 12 11 10 10 10 10 10 10 10 9 9 9 10 10 10 10 10 11
16 16 16 16 17 17 16 16 17 17 16 16 17 17 17 17 17 17 17 16 15 15 14 13 13 14 13 13 13 13 13 14 14 15 15 15 15 15 15 15 14 14 14 14 13 13 13 13 12 12 12 12 12 12 12 12 12 12 12 12 12 12 12 11 11 11 11 10 9 9 9 9 9 9 8 8 8 8 8 8 8 9 9 9 10
16 16 16 16 16 16 16 16 16 16 16 16 16 16 17 17 17 17 17 16 16 15 14 13 13 13 13 13 13 13 13 14 14 14 15 15 15 15 14 14 14 13 13 13 13 12 12 12 12 12 12 12 12 11 11 11 11 11 12 11 11 11 11 11 10 10 9 9 8 8 8 7 7 7 7 7 7 7 7 7 7 8 8 8 8
16 16 16 15 15 15 15 16 16 16 16 16 16 16 16 16 16 17 17 17 16 15 14 13 13 13 13 13 13 14 14 14 14 14 14 14 14 14 14 13 13 13 13 12 12 12 12 12 11 11 11 11 11 11 11 11 11 10 10 10 10 9 9 9 9 8 8 7 7 7 7 7 7 6 6 6 6 6 6 6 6 7 7 7 7
15 15 15 15 15 15 15 15 15 15 15 16 16 16 16 16 16 16 17 17 16 14 13 13 13 13 13 13 14 14 14 14 14 14 14 14 14 14 13 13 13 12 12 12 12 11 11 11 11 10 10 10 10 10 10 10 10 9 9 9 8 8 8 8 7 7 7 6 6 6 6 6 6 6 6 6 6 6 6 6 6 6 6 7 7
15 15 15 15 15 15 15 15 15 16 16 16 16 16 16 16 16 16 16 17 16 14 14 13 13 13 13 14 14 14 14 14 13 13 13 13 13 13 12 12 12 11 11 11 11 11 10 10 10 10 9 9 9 9 9 9 9 8 8 7 7 7 6 6 6 6 6 6 6 5 5 5 5 5 5 5 5 5 5 6 6 6 6 7 7
14 14 15 15 15 15 15 15 15 16 16 16 16 16 16 16 16 16 16 16 15 14 14 13 13 13 13 13 14 14 14 14 13 13 13 13 12 12 11 11 11 11 10 10 10 10 9 9 9 9 8 8 8 8 8 8 8 7 7 7 6 6 5 5 5 5 5 5 5 5 5 5 5 5 5 5 5 5 5 5 5 6 6 6 7
14 14 14 14 14 15 15 15 15 16 16 16 16 16 16 16 16 16 16 16 15 14 14 13 13 13 13 13 13 13 13 13 13 13 12 12 11 11 11 10 10 10 10 10 9 9 9 8 8 8 8 7 7 7 7 7 7 6 6 6 6 5 5 5 4 4 4 4 4 4 4 4 4 4 4 4 4 4 4 5 5 5 6 6 6
14 14 14 14 14 14 15 15 15 15 15 16 16 16 16 16 16 15 15 15 15 14 14 13 13 13 13 13 13 13 13 12 12 12 11 10 10 10 10 10 9 9 9 9 9 8 8 8 7 7 7 7 7 6 6 6 6 6 6 5 5 5 4 4 4 4 4 4 3 3 3 3 3 3 3 3 3 4 4 4 4 5 5 5 6
14 14 14 14 14 14 14 14 15 15 15 15 16 15 15 15 15 15 15 15 15 14 14 13 13 13 13 13 12 12 12 12 11 11 10 10 9 9 9 9 9 8 8 8 8 8 7 7 7 7 6 6 6 6 6 5 5 5 5 5 5 4 4 4 3 3 3 3 3 2 2 2 2 2 3 3 3 3 3 4 4 4 5 5 5
13 13 13 13 13 13 14 14 15 15 15 15 15 15 15 15 15 15 15 15 15 15 14 13 13 13 13 13 12 12 11 11 11 10 10 9 9 8 8 8 8 8 8 7 7 7 7 7 6 6 6 6 6 5 5 5 5 5 5 4 4 4 4 3 3 3 3 3 2 2 2 2 2 2 2 2 3 3 3 3 4 4 4 5 5
13 13 13 13 13 13 14 14 15 15 15 15 15 14 14 14 14 14 14 14 14 14 14 13 13 13 12 12 12 11 11 10 10 10 9 9 8 8 8 8 8 7 7 7 7 6 6 6 6 6 6 6 5 5 5 5 5 4 4 4 4 4 3 3 3 3 3 2 2 2 2 2 2 1 2 2 2 2 3 3 3 4 4 5 5
13 13 13 13 14 14 14 14 14 15 15 15 14 14 14 14 14 14 14 14 14 14 13 13 13 12 12 11 11 11 10 10 10 9 9 8 8 8 8 7 7 6 6 6 6 6 6 6 6 6 6 5 5 5 5 5 4 4 4 4 4 3 3 3 3 2 2 2 2 2 2 2 1 1 1 2 2 2 3 3 3 4 4 4 5
13 13 13 14 14 14 14 14 14 14 14 14 14 14 14 14 14 14 13 14 14 13 13 13 12 12 11 11 11 10 10 10 9 9 8 8 8 8 7 7 6 6 6 6 6 6 6 6 6 6 5 5 5 5 5 5 4 4 4 3 3 3 3 3 2 2 2 2 2 2 2 2 1 1 1 1 2 2 2 3 3 4 4 4 4
12 13 13 13 14 14 14 14 14 14 14 14 14 14 14 14 14 13 13 13 13 13 12 12 11 11 11 10 10 10 9 9 9 8 8 8 8 7 7 7 6 6 6 6 5 5 5 5 5 5 5 5 5 5 5 4 4 4 4 3 3 3 3 2 2 2 2 2 2 2 2 2 1 1 1 1 1 2 2 3 3 4 4 4 4
12 13 13 13 13 13 13 13 13 14 14 14 14 14 14 14 13 13 13 13 13 12 12 11 11 11 10 10 10 9 9 9 8 8 8 8 7 7 7 6 6 6 6 5 5 5 5 5 5 5 5 4 4 4 4 4 4 4 3 3 3 3 3 2 2 2 2 2 2 2 2 1 1 0 1 1 1 1 2 3 3 3 3 4 4
Height
827 828 830 831 833 834 836 838 839 841 842 843 844 845 847 848 849 850 851 852 854 854 856 857 858 859 860 860 861 862 863 863 864 864 865 866 866 867 867 867 868 869 869 870 870 870 870 870 870 870 870 870 870 869 869 869 870 869 869 869 868 868 868 867 867 867 866 867 866 865 865 864 863 862 860 859 858 858 857 856 855 854 853 852 850
825 827 829 830 832 833 835 837 838 840 841 842 843 844 845 846 848 849 850 851 852 853 855 855 857 858 858 859 860 861 861 862 863 864 864 865 865 866 866 867 867 868 868 869 869 869 870 869 869 869 869 869 869 869 869 869 869 869 868 868 868 868 868 868 867 867 866 866 865 864 864 863 862 860 859 858 857 856 856 855 853 852 851 850 849
824 826 828 829 830 832 834 835 837 839 839 841 842 843 844 845 846 847 848 849 851 852 853 854 855 856 857 858 859 859 860 861 862 863 863 864 865 865 866 866 866 867 867 868 868 868 869 869 869 869 869 869 868 868 868 868 868 868 867 867 867 867 867 867 867 866 866 865 864 864 863 862 861 860 859 858 856 855 855 853 852 851 850 849 848
822 824 826 828 829 831 833 834 836 837 838 839 840 841 842 843 845 846 846 847 848 850 851 853 854 855 856 857 858 858 859 860 861 862 862 863 864 864 865 865 865 866 866 866 867 867 867 868 868 868 868 868 868 867 867 868 867 867 867 867 866 866 866 866 866 865 865 864 863 863 862 861 860 859 858 856 855 855 853 852 851 850 849 849 848
820 822 825 827 828 829 831 833 835 836 837 838 839 840 841 842 843 844 845 846 847 848 850 851 852 853 854 855 856 857 858 859 860 861 862 862 863 863 864 864 865 865 865 866 866 866 866 866 867 867 867 867 867 866 866 867 866 866 866 866 866 866 865 865 865 865 864 864 863 862 861 860 859 858 856 855 854 853 852 851 850 850 849 848 848
818 820 823 825 827 828 830 832 833 835 837 837 838 839 840 841 842 843 844 845 846 847 848 849 850 851 853 854 855 856 857 858 859 860 861 861 861 862 863 863 864 864 864 865 865 865 865 865 865 865 866 865 865 865 866 866 866 866 866 866 865 865 865 865 865 864 864 863 862 861 860 859 858 857 855 855 853 852 852 851 850 849 849 848 847
816 818 821 823 825 828 829 831 833 834 836 837 838 838 839 840 841 842 843 844 845 846 846 848 849 850 852 853 854 855 855 857 858 858 859 860 860 861 862 862 863 863 863 864 864 864 864 864 864 864 864 864 865 865 865 865 865 865 865 865 865 864 864 864 864 864 863 862 862 861 860 859 858 857 855 854 853 852 851 851 850 849 848 847 846
815 818 820 822 824 827 829 831 833 834 835 836 837 837 838 839 840 841 842 842 843 845 846 847 848 849 850 851 852 853 854 855 857 857 858 859 859 860 860 861 862 862 862 862 863 863 863 863 863 863 862 863 863 864 864 863 864 864 864 864 864 864 863 863 863 863 862 861 861 860 859 859 857 856 855 853 853 852 851 851 849 848 847 845 844
815 817 820 822 824 827 829 831 832 833 834 834 835 836 836 837 838 840 841 841 842 843 845 846 847 848 849 850 851 852 853 854 855 856 857 858 858 859 859 860 860 861 861 861 861 862 862 862 862 861 861 861 862 862 862 862 862 862 863 863 863 863 862 862 862 861 861 860 860 859 859 858 857 856 855 853 853 852 851 850 849 847 845 843 842
815 818 821 823 825 826 828 829 830 831 832 832 833 834 835 836 837 838 839 840 841 842 843 844 845 847 847 848 850 851 852 853 854 855 856 856 857 858 858 859 859 859 860 860 860 860 860 860 860 860 860 860 860 860 861 861 861 861 862 862 862 862 861 861 861 861 860 860 859 858 858 857 856 855 855 854 853 852 850 849 848 846 845 842 840
816 819 821 823 824 825 826 827 828 829 829 830 831 832 833 834 835 836 837 839 840 841 842 843 844 845 846 846 848 849 850 851 852 853 854 855 855 856 857 858 858 858 859 859 859 858 858 859 859 859 858 858 859 859 859 860 860 860 861 860 860 860 860 860 860 859 859 858 858 857 857 856 856 855 854 853 852 851 850 849 848 846 845 843 840
817 820 821 822 823 823 824 826 827 828 828 829 830 830 831 832 833 835 836 838 839 839 840 841 842 843 844 845 846 847 848 849 850 851 852 853 854 855 856 857 857 857 858 857 857 857 857 857 857 857 857 857 858 858 858 858 858 859 859 859 859 859 859 859 858 858 857 857 856 856 856 856 855 854 854 852 851 850 849 848 847 846 845 843 841
820 822 821 821 821 821 823 823 825 827 827 828 829 829 830 830 831 833 834 836 837 837 838 838 840 841 842 843 844 845 847 848 849 850 850 851 852 853 854 855 856 856 856 856 856 856 855 856 855 856 856 856 857 857 857 857 857 858 858 858 858 858 858 857 857 856 856 855 855 855 855 855 854 853 852 851 850 849 848 847 846 845 844 842 841
818 819 819 819 819 820 822 822 824 826 826 827 828 828 828 829 829 831 833 835 836 836 836 837 838 839 840 842 844 845 846 847 848 849 849 850 851 852 853 854 854 854 854 855 855 855 854 854 854 855 855 855 856 856 856 856 856 857 857 857 857 857 857 856 855 855 855 854 854 854 854 853 853 852 851 850 849 848 847 846 845 844 843 842 841
816 817 818 818 818 819 821 822 824 825 825 826 827 826 827 827 828 830 832 833 834 834 835 836 836 837 838 840 842 843 844 846 847 847 848 848 849 850 851 853 853 853 853 853 854 854 853 853 853 854 854 854 854 854 854 855 855 855 856 856 856 856 856 855 854 854 854 854 854 854 853 852 851 851 850 849 848 847 846 845 844 843 842 841 840
816 817 818 818 818 819 820 821 823 824 825 825 825 825 827 827 827 829 831 832 833 833 834 835 835 836 837 839 840 841 842 844 845 846 846 847 848 849 850 851 851 851 852 852 853 853 853 853 853 853 853 853 853 853 853 854 854 854 855 855 855 856 855 854 854 853 853 853 853 852 852 851 850 849 849 848 847 846 845 844 843 841 840 839 839
815 816 817 817 817 818 820 820 821 822 823 823 823 825 826 827 827 828 830 832 832 833 833 834 834 835 837 838 839 839 840 842 843 844 845 846 847 847 848 849 849 850 851 851 852 852 852 852 852 852 852 852 852 852 852 853 853 853 854 854 854 854 854 853 853 853 853 852 852 851 850 849 849 848 848 847 847 846 844 843 842 841 840 839 839
814 814 815 816 817 818 818 818 818 819 821 822 823 824 825 826 826 827 830 831 831 833 833 833 834 835 836 837 838 838 839 840 842 843 844 845 845 846 846 847 848 849 849 850 851 851 851 852 852 852 852 851 852 852 852 852 852 852 853 853 853 853 853 853 853 852 852 851 850 850 849 849 848 848 848 847 846 845 844 842 842 841 840 840 839
813 813 814 814 816 818 818 818 818 819 821 821 822 823 823 824 825 826 828 829 830 831 832 832 833 834 835 837 838 838 839 839 841 842 842 843 843 844 844 845 846 847 848 849 850 850 851 851 851 851 851 851 851 851 851 851 851 851 851 851 851 852 852 852 852 852 851 850 849 849 848 848 848 848 847 847 846 845 844 843 842 841 840 840 839
812 814 814 813 816 819 819 818 818 819 821 820 820 821 821 822 824 825 826 827 828 830 831 832 832 834 835 837 837 838 839 839 840 841 841 841 841 842 843 844 844 845 846 847 848 849 850 850 851 851 851 851 851 851 851 851 850 850 850 850 851 851 851 852 852 851 851 850 849 848 848 847 847 846 846 846 845 845 844 843 842 841 840 840 839
812 814 815 814 816 818 819 819 818 818 819 818 818 820 820 820 822 823 824 826 828 829 831 831 832 835 836 837 838 839 840 840 840 840 840 839 840 840 841 843 844 845 845 846 847 848 849 850 850 851 851 851 851 851 850 850 850 849 850 850 851 851 851 851 851 851 850 849 848 847 847 846 846 845 845 845 845 844 844 843 842 841 841 840 839
813 814 816 816 817 818 819 820 819 818 818 818 818 819 820 820 822 823 824 826 827 829 831 832 833 836 837 838 839 840 841 841 841 841 840 839 839 839 840 842 844 845 845 846 847 847 848 849 849 850 850 850 851 850 850 850 850 850 850 851 851 851 851 851 851 851 850 849 848 847 846 846 845 845 845 844 844 843 843 843 842 841 841 840 839
816 816 817 818 819 819 820 821 821 820 820 819 819 819 820 821 822 823 825 826 828 830 832 833 834 836 838 839 840 841 841 842 842 842 841 839 839 839 839 841 843 844 844 845 846 847 848 848 848 849 850 850 850 850 850 850 850 850 851 851 851 851 851 851 851 850 850 849 848 847 847 846 846 846 845 844 843 843 842 842 841 841 840 839 839
819 819 820 821 821 822 822 822 823 823 823 822 821 821 822 822 823 825 826 828 829 831 833 834 835 837 839 840 841 842 843 843 843 843 842 841 840 839 840 841 843 843 843 844 846 847 847 848 848 849 850 850 850 850 850 850 850 851 851 851 851 851 851 851 851 851 850 850 849 848 848 848 848 847 846 845 844 843 842 841 841 840 839 838 838
821 822 823 823 824 825 825 825 826 826 826 826 825 825 826 826 826 827 828 829 831 833 835 836 836 838 839 840 842 843 844 844 844 844 844 843 841 840 840 841 842 844 844 844 845 847 847 848 848 849 850 850 850 850 850 851 851 850 851 851 851 851 851 851 851 851 851 850 850 849 849 849 849 848 847 846 844 843 842 841 841 839 838 837 836
823 824 825 826 827 827 827 827 828 828 829 829 829 829 829 829 830 830 830 831 833 834 836 837 837 838 840 841 842 843 844 844 844 845 845 844 842 841 842 843 844 845 844 844 845 846 847 848 848 849 849 850 850 850 851 851 851 851 851 851 851 851 851 852 852 852 851 851 850 850 850 850 849 848 847 846 844 843 843 842 841 839 838 836 835
824 825 826 828 829 829 830 830 830 830 831 831 831 831 832 832 832 832 832 833 834 836 837 838 838 839 840 841 842 843 843 844 845 845 846 845 843 843 844 844 845 845 845 845 845 846 848 848 848 849 848 848 849 850 852 852 852 852 851 851 852 852 852 852 852 852 851 851 851 850 850 850 849 848 847 846 845 844 844 843 842 840 839 838 836
825 826 827 828 829 830 831 832 832 833 833 834 834 834 834 834 834 834 834 835 836 837 838 839 839 840 840 841 842 842 843 844 844 845 845 844 844 844 844 844 845 844 844 845 846 847 848 848 848 848 847 847 848 850 851 852 852 852 852 852 853 853 853 852 852 852 852 852 851 851 850 849 849 848 848 847 846 845 844 843 843 841 840 838 837
826 827 828 829 829 830 831 832 833 834 835 836 836 836 836 837 837 837 837 837 837 838 838 839 840 841 841 842 842 842 843 843 844 844 845 845 845 845 844 845 845 845 846 846 847 848 848 848 848 848 848 848 849 850 851 852 852 853 853 853 854 853 853 853 852 852 852 852 851 851 850 849 849 848 848 847 846 846 845 844 843 842 840 839 838
826 827 828 829 830 831 831 832 833 834 835 836 837 838 839 839 839 839 839 839 839 840 840 840 841 842 842 843 843 844 844 844 844 845 845 845 846 846 846 846 847 847 847 847 847 848 848 848 848 849 849 849 850 851 852 853 853 854 854 854 854 854 854 854 854 854 853 852 852 851 850 850 849 848 848 847 847 846 845 844 843 842 841 839 839
826 827 827 828 829 831 832 833 834 835 836 837 838 839 840 841 841 842 842 841 841 842 842 842 843 843 843 843 844 845 845 845 845 846 846 846 847 847 847 848 848 848 848 848 848 848 849 849 850 850 850 851 851 853 854 854 854 855 855 855 855 855 855 855 855 854 854 853 852 852 851 850 849 849 848 848 847 846 845 844 843 843 841 840 840
825 826 827 828 829 831 833 834 835 836 837 838 839 839 840 841 843 844 844 844 843 843 844 844 845 845 845 845 845 845 846 846 846 847 847 847 848 848 849 849 849 849 849 848 848 849 850 850 851 852 852 853 853 854 855 855 855 856 856 856 856 856 856 856 856 855 855 853 853 852 851 850 850 849 848 848 847 846 846 845 844 843 842 841 841
825 825 826 828 829 831 832 834 835 836 837 838 839 839 839 840 842 844 845 845 844 844 845 845 846 846 846 846 846 846 847 847 847 848 848 848 849 849 850 850 850 850 849 849 849 850 851 851 852 853 853 854 854 855 855 856 856 857 857 857 858 858 858 857 857 856 855 854 853 853 852 851 850 849 848 848 847 847 846 845 844 844 842 842 841
826 825 826 827 828 830 831 833 834 836 837 839 839 839 838 839 840 842 843 844 844 845 845 846 846 846 846 846 847 847 847 847 848 848 848 849 850 850 850 851 851 851 851 851 851 852 852 852 853 854 854 855 855 856 856 857 857 858 858 858 858 858 858 858 857 856 856 855 854 853 852 851 850 849 849 848 848 847 847 846 845 844 843 842 841
827 827 826 826 827 828 829 831 833 835 837 838 839 839 839 839 840 840 841 842 843 844 845 846 846 847 847 847 847 847 847 847 847 848 849 850 850 851 851 852 852 852 852 852 853 853 853 854 854 855 855 855 856 857 857 858 858 858 859 859 859 859 858 858 857 857 856 855 854 853 852 851 851 850 850 849 849 848 848 847 846 845 844 843 842
828 828 828 827 827 827 828 829 832 834 836 837 837 838 838 839 839 840 840 841 842 844 845 846 847 847 847 847 847 847 847 847 848 849 850 851 851 851 852 852 853 853 853 854 854 854 854 854 855 855 856 857 857 858 858 858 859 859 859 859 859 858 858 858 857 857 856 855 854 853 853 852 852 852 851 851 850 850 849 849 848 847 846 844 843
829 829 828 828 828 827 828 828 830 834 836 836 837 837 838 838 839 839 840 841 841 842 844 845 846 847 847 848 848 848 848 848 849 850 851 851 852 852 852 852 853 853 854 854 854 854 855 855 856 857 858 858 858 859 859 859 859 859 859 859 859 858 858 858 857 857 856 856 855 855 855 854 854 854 853 853 853 852 851 850 849 848 847 845 843
828 828 828 829 829 828 828 828 829 831 834 835 836 837 837 838 838 839 840 841 840 841 843 845 846 847 848 848 849 849 849 849 850 850 851 852 852 852 852 852 853 853 854 854 855 855 856 857 858 858 858 858 859 859 859 859 859 859 859 859 859 858 858 858 858 857 857 857 857 857 857 856 856 856 855 855 854 853 852 851 850 848 847 845 844
827 827 828 828 828 829 829 829 829 831 833 834 835 836 837 839 839 839 840 840 840 841 842 844 846 847 848 848 850 850 851 851 850 850 851 852 852 852 852 853 853 854 854 855 856 856 857 858 858 858 858 859 859 859 859 859 859 859 859 859 859 858 859 859 859 859 859 859 859 859 858 858 857 857 856 855 854 853 852 851 850 848 847 845 844
826 827 827 827 828 829 829 830 831 831 832 833 835 836 837 838 839 840 840 840 841 841 842 845 846 847 848 849 850 850 851 851 851 851 851 852 852 853 853 853 854 855 855 856 857 857 858 858 858 859 859 859 859 860 860 860 860 860 860 859 859 859 860 860 860 860 860 860 860 859 859 858 857 857 856 855 854 853 852 851 849 848 847 845 843
827 827 827 827 827 828 828 830 831 831 832 833 834 835 836 837 838 839 840 840 840 841 842 844 846 847 848 848 849 850 851 852 852 852 852 852 852 853 853 854 854 855 856 856 857 857 858 858 859 859 859 860 860 860 860 860 860 860 860 860 860 861 861 861 861 861 861 860 860 860 859 858 857 856 856 855 854 853 852 850 849 848 846 844 843
826 826 826 826 827 827 828 829 830 830 831 832 833 834 835 836 837 838 839 839 840 840 841 843 845 846 846 846 847 848 849 851 852 853 852 852 852 853 853 854 855 855 856 857 857 858 858 859 859 860 860 860 861 861 860 861 861 861 861 861 861 862 862 862 862 862 861 861 861 860 859 858 857 856 855 854 853 852 851 850 848 847 845 844 843
826 826 826 826 827 827 828 829 830 830 831 831 832 833 834 835 836 837 838 839 840 840 840 842 844 844 845 845 845 846 848 850 851 852 852 852 853 854 855 855 856 856 857 858 858 859 859 859 860 860 860 861 861 861 861 861 861 861 862 862 862 862 862 862 862 862 862 861 861 860 859 858 857 856 855 854 852 851 850 849 848 846 845 844 842
825 825 825 826 826 827 828 829 829 830 831 831 831 832 832 833 835 836 837 839 840 840 840 841 842 843 844 845 846 847 848 849 850 852 852 853 854 855 856 856 856 857 857 858 859 859 860 860 860 861 861 861 861 861 861 861 861 861 862 862 862 862 862 862 862 862 861 861 860 859 858 857 856 855 854 853 852 851 850 848 847 846 845 844 842
825 825 825 825 826 827 828 828 829 830 831 831 831 831 832 832 833 835 837 839 840 840 841 841 842 843 844 846 847 848 848 849 851 852 853 854 855 856 856 857 857 857 858 859 860 860 860 861 861 861 861 862 862 861 861 861 861 861 862 862 862 862 862 862 862 862 861 860 859 858 857 856 855 854 853 852 851 850 849 848 847 846 845 844 843
824 824 824 825 825 826 827 828 828 829 830 830 830 831 832 832 833 835 837 838 839 840 841 842 842 843 844 846 847 848 849 850 852 853 854 854 855 856 857 857 858 858 859 859 860 861 861 861 861 861 862 862 862 862 861 861 861 861 861 861 862 862 862 862 862 861 860 860 859 858 857 855 854 853 852 851 851 850 849 849 848 846 845 844 843
823 824 824 824 824 825 826 827 828 829 829 830 830 830 832 833 833 835 837 838 838 840 841 842 842 843 844 846 847 848 850 851 853 853 854 855 855 856 857 857 858 859 859 860 860 861 861 861 861 861 862 862 862 862 862 861 861 861 861 861 861 861 861 861 861 860 860 859 858 857 856 854 853 852 851 851 851 850 849 848 847 846 845 843 842
823 823 824 824 824 825 826 827 828 828 829 829 830 830 831 832 834 835 837 837 838 839 840 841 842 843 845 846 848 849 851 852 853 853 854 855 855 856 857 857 858 859 859 860 860 861 861 862 862 862 862 862 862 862 862 861 861 861 861 861 861 861 860 860 860 859 859 858 857 856 855 853 852 851 851 850 850 849 848 848 847 845 844 843 841
821 822 822 822 823 824 825 826 827 828 828 829 830 831 831 833 834 835 837 837 838 839 840 841 842 844 846 847 849 850 852 853 853 854 855 855 856 856 857 857 858 859 859 860 860 860 861 862 862 862 862 862 862 862 861 861 861 861 860 860 860 860 860 859 859 859 858 857 856 855 853 852 851 851 850 850 849 849 848 847 846 844 843 841 840
820 821 821 821 821 822 823 824 825 827 828 829 830 831 832 833 834 835 836 837 839 840 840 841 843 844 846 847 849 851 852 853 854 854 855 855 856 856 857 858 858 859 859 860 860 860 861 861 861 861 862 862 861 861 861 861 860 860 860 860 860 859 859 859 858 858 857 856 855 853 852 851 850 850 849 848 848 847 847 846 844 843 842 840 839
820 820 820 820 820 821 822 822 824 826 828 830 831 831 832 833 833 834 836 837 839 840 841 842 843 845 846 848 849 851 852 853 854 854 855 855 856 856 857 857 858 858 859 860 860 860 860 861 861 861 861 861 861 861 860 860 860 860 859 859 859 859 859 858 857 857 856 854 853 852 851 850 849 848 848 847 847 846 846 845 843 842 841 839 838
Wind_Speed
25 25 25 24 22 22 22 22 21 20 20 19 19 19 18 17 18 18 16 17 15 16 18 17 16 17 16 15 14 13 13 13 12 12 11 10 11 9 8 9 11 8 6 7 7 6 6 5 6 7 6 6 7 8 7 6 7 10 11 12 12 9 10 10 9 10 12 11 9 12 14 15 15 16 17 17 15 14 14 16 16 16 16 17 17
26 26 25 23 23 23 23 22 22 19 19 20 20 19 19 17 17 17 17 17 16 16 17 16 15 16 16 16 15 15 14 13 13 13 12 10 11 11 9 9 11 10 8 8 8 7 7 6 6 6 7 8 8 7 6 6 8 9 7 8 10 7 5 7 9 9 9 9 10 12 14 15 16 16 16 15 15 14 14 15 16 16 16 16 14
26 26 25 24 22 23 22 21 21 19 17 20 20 19 19 18 17 16 18 18 17 16 17 17 16 15 15 15 14 15 16 14 13 14 13 11 10 10 11 10 11 10 9 8 8 7 7 6 6 7 7 8 9 9 8 8 9 7 5 2 4 4 3 3 4 4 6 9 11 14 15 15 17 16 15 14 13 13 13 14 15 14 14 15 15
27 27 25 24 22 23 23 21 21 19 18 19 19 18 18 18 17 16 17 18 18 18 16 16 17 16 16 16 14 14 15 16 14 13 12 11 10 10 10 9 9 9 8 8 7 7 7 8 8 8 8 9 9 8 8 8 8 7 7 6 5 5 4 4 5 5 7 9 12 14 15 16 16 15 13 13 13 13 13 13 15 15 16 17 17
29 28 26 25 23 23 23 22 21 20 19 19 18 18 17 17 17 16 15 16 17 18 17 15 17 18 17 16 14 14 14 14 15 14 12 12 11 11 10 9 8 9 9 9 8 8 8 9 9 8 8 9 8 6 6 7 6 5 6 6 4 4 5 5 6 6 7 10 12 13 14 14 15 15 15 16 17 15 15 16 18 18 17 16 15
31 30 28 26 24 23 23 22 22 21 20 18 18 18 18 17 18 16 15 15 14 15 16 15 15 17 17 16 14 15 14 13 13 14 13 11 11 10 10 10 9 9 9 9 9 9 8 9 10 9 9 10 9 8 7 7 6 5 5 5 5 5 5 5 6 7 8 10 11 13 14 13 14 17 18 18 19 18 17 17 17 16 15 16 18
32 32 30 28 26 25 24 22 21 20 20 19 18 18 18 17 18 17 15 15 14 14 14 15 15 16 17 15 14 14 14 13 12 13 12 11 10 10 10 10 10 10 10 11 11 10 9 9 9 10 11 11 11 10 8 7 6 5 6 6 5 5 5 5 6 7 8 9 11 13 14 14 15 17 17 17 17 15 14 15 16 17 19 20 21
32 32 29 28 27 26 24 22 21 20 19 19 18 19 19 18 18 19 16 14 15 15 15 14 14 16 17 16 14 13 14 14 13 13 12 12 11 10 11 10 11 11 11 11 11 10 10 9 9 10 10 10 11 12 10 8 7 6 6 5 4 3 4 4 5 7 8 10 12 13 14 15 16 15 16 18 16 13 14 17 18 19 21 22 21
31 32 29 27 26 25 22 21 21 20 19 20 19 19 20 21 20 20 19 17 15 15 16 14 13 14 16 16 15 14 13 14 15 14 13 13 12 11 10 9 9 9 9 9 10 10 9 8 8 9 8 7 9 11 11 10 8 7 7 6 6 6 7 7 8 9 10 11 12 12 13 15 15 15 17 17 15 13 16 19 20 20 21 23 23
30 29 27 25 23 23 21 19 19 19 17 17 20 20 19 21 23 22 22 21 18 16 16 16 15 15 15 16 16 15 14 14 15 15 14 14 13 12 10 8 7 8 8 9 9 9 9 8 7 6 6 6 8 10 11 10 9 8 8 8 8 9 9 10 10 11 10 11 13 12 12 14 15 16 17 15 13 14 17 18 18 19 21 22 24
20 18 17 17 19 20 20 18 18 19 15 12 17 21 16 15 21 24 23 22 20 18 18 18 18 18 17 17 17 16 15 15 16 16 16 15 14 13 11 9 8 8 8 7 7 7 7 5 2 2 3 5 7 8 9 8 8 8 8 8 8 7 8 9 11 12 12 13 14 13 12 13 15 16 14 12 12 13 15 15 16 18 18 18 19
17 15 14 13 16 18 20 20 19 20 16 11 11 14 13 13 17 21 21 21 20 18 19 19 18 18 17 16 17 18 17 17 16 16 16 15 14 14 12 10 7 6 5 5 7 8 7 3 3 3 2 3 5 6 6 6 7 7 7 6 6 5 6 8 10 12 14 15 16 15 14 14 15 14 12 11 12 13 14 15 16 16 16 15 16
16 13 14 14 15 18 20 21 21 21 19 15 11 11 12 13 15 15 16 18 18 15 15 16 14 13 14 13 15 17 17 16 16 15 15 15 15 16 14 11 7 5 5 6 5 3 4 4 5 3 3 4 4 3 4 5 6 6 5 4 3 3 5 6 6 7 9 10 12 13 11 11 12 10 8 9 12 13 14 15 16 15 15 15 16
14 17 20 21 19 20 21 20 21 21 19 18 15 14 14 13 13 13 13 14 14 12 14 14 11 10 11 12 14 16 16 15 15 15 15 15 16 16 15 12 7 4 5 5 2 2 3 4 5 4 4 4 4 3 3 4 4 4 4 2 1 3 5 5 4 4 5 5 5 7 7 7 7 7 8 10 12 13 13 14 14 13 13 13 14
12 12 18 22 22 21 20 19 19 19 20 20 18 16 15 13 11 12 12 11 11 9 10 10 8 7 8 11 14 16 16 15 14 15 15 15 14 14 12 9 5 3 3 3 3 4 4 4 4 4 4 4 3 3 3 2 3 4 3 2 1 3 5 5 4 4 4 4 4 6 7 7 8 8 10 11 11 10 10 10 10 11 12 13 13
15 12 13 18 20 19 18 18 18 18 19 22 22 19 16 13 10 11 12 11 9 8 8 8 7 7 7 10 13 14 15 14 14 13 14 13 12 10 9 8 7 6 5 4 5 5 5 4 4 4 3 3 2 2 1 1 2 3 4 3 2 2 3 3 2 3 4 5 6 7 6 6 7 7 7 7 8 9 9 9 10 12 14 15 14
14 14 13 15 16 15 15 19 21 19 19 21 23 20 16 11 10 12 13 10 7 7 9 9 8 8 9 11 12 13 14 14 13 13 12 11 11 9 9 9 9 8 7 6 5 6 6 4 3 3 2 1 1 1 2 2 3 3 3 4 3 1 1 1 4 6 7 7 5 6 6 5 4 4 6 7 8 10 11 12 13 14 13 12 11
9 11 14 16 15 13 15 21 24 21 19 18 16 15 13 11 13 14 14 12 9 6 8 10 10 10 11 12 12 12 13 13 13 12 12 11 11 11 11 11 10 9 8 7 6 6 6 5 3 2 1 2 3 4 4 4 3 2 1 1 2 1 2 4 6 6 6 6 7 7 6 4 3 5 8 9 10 12 13 14 14 12 11 11 11
10 10 14 16 13 10 13 20 21 20 18 15 11 11 12 14 15 16 17 16 12 9 11 13 13 13 13 13 12 11 11 12 11 11 12 12 12 13 13 12 12 11 10 8 7 5 5 4 3 3 4 5 5 5 4 3 1 0 1 2 2 1 3 5 6 7 8 9 10 9 8 6 6 8 11 12 12 12 13 14 14 12 12 12 13
11 11 12 11 8 8 11 15 16 16 14 12 10 11 12 13 14 16 17 15 13 14 16 16 16 15 13 13 12 10 9 10 9 9 11 12 13 14 13 13 13 13 11 10 8 7 6 5 5 6 6 5 5 5 5 4 3 3 3 3 4 5 6 8 9 9 9 9 11 11 10 9 10 10 11 12 13 12 13 14 14 13 13 14 16
13 12 10 7 7 7 7 9 12 13 12 10 11 13 15 14 15 17 18 17 16 17 18 17 17 16 14 13 12 11 10 10 9 9 11 12 13 12 12 12 12 13 14 13 11 9 7 4 4 5 5 4 5 6 6 6 6 6 6 6 6 7 8 8 9 9 8 9 10 11 11 10 10 10 11 13 15 14 13 14 14 14 15 16 17
17 16 12 9 7 6 6 8 10 10 10 12 15 17 18 20 22 23 23 21 19 18 18 18 18 17 16 14 13 13 12 11 11 11 11 13 13 13 13 13 12 13 14 13 11 9 7 5 5 5 5 5 5 6 7 8 9 9 9 7 5 6 8 8 9 9 9 10 12 13 12 11 11 11 12 14 14 13 11 12 14 15 13 13 14
21 21 19 18 18 16 15 14 13 13 13 15 18 20 20 22 24 25 25 23 20 19 19 20 20 19 18 17 15 15 14 13 12 12 13 14 15 15 16 15 13 12 13 12 9 8 8 7 7 6 6 7 8 9 9 10 11 12 11 8 6 7 8 9 8 8 9 12 13 15 15 14 13 14 15 15 13 11 10 12 15 16 14 13 12
24 23 22 21 21 22 21 20 18 18 18 19 21 22 22 22 23 23 23 23 22 22 22 22 22 22 21 20 18 16 15 15 13 12 12 13 16 17 17 16 15 13 13 12 10 9 8 8 7 6 7 8 10 11 12 12 12 13 12 10 9 9 9 9 9 9 11 13 14 16 15 14 14 15 16 15 13 12 12 13 14 15 16 14 13
21 22 22 21 21 20 21 21 21 19 19 19 20 20 20 21 21 21 22 22 22 22 21 21 22 22 21 20 18 14 13 12 12 11 9 9 12 13 13 13 12 11 10 11 10 8 7 7 7 7 7 8 11 13 13 11 11 12 11 10 9 9 9 9 10 11 13 14 14 15 14 14 14 14 13 13 13 13 14 15 17 18 18 16 15
20 20 20 20 21 21 22 22 22 21 19 18 17 16 16 16 17 18 19 19 19 18 17 17 18 18 18 17 15 13 11 10 11 10 8 7 8 8 7 6 6 6 6 7 7 7 7 7 8 7 6 6 9 11 11 11 11 11 12 13 12 11 10 11 12 14 15 14 14 14 14 13 13 12 12 14 15 15 16 18 19 19 20 19 18
18 19 20 21 20 20 20 21 21 21 21 20 19 18 16 15 15 14 14 14 15 14 14 14 14 16 17 16 15 13 12 12 11 9 7 7 7 7 6 5 5 4 4 6 7 8 9 8 7 6 5 5 6 7 10 13 14 15 15 14 14 15 14 13 14 15 15 13 12 13 13 13 13 14 15 16 17 17 17 17 18 19 19 18 19
15 17 18 19 19 19 19 18 19 18 18 18 19 19 17 16 16 16 14 13 13 13 12 12 12 14 15 16 15 15 13 12 10 8 7 7 6 6 6 5 5 6 6 7 8 9 8 9 10 11 14 15 14 11 13 16 18 19 18 15 14 15 14 13 14 15 14 12 12 14 14 14 14 15 16 16 17 17 17 17 18 18 18 17 18
16 16 14 15 18 21 21 19 18 18 17 17 18 18 17 16 17 17 16 14 13 12 13 13 13 13 14 15 15 15 14 13 10 8 8 7 6 6 6 7 8 9 9 8 8 9 10 13 15 15 17 20 20 17 16 16 18 19 19 17 16 16 15 14 15 14 13 12 14 16 15 14 15 16 16 16 17 16 16 17 18 18 18 18 19
16 15 14 16 20 22 21 20 20 19 18 18 18 19 18 16 15 15 16 15 13 11 11 12 12 14 16 16 15 13 13 12 10 9 8 7 6 6 8 9 10 11 11 11 11 13 16 18 19 18 18 20 21 20 18 16 17 19 19 19 19 18 16 15 14 13 12 12 14 16 15 14 15 16 17 17 17 17 17 18 19 19 20 20 21
14 14 16 19 23 23 21 21 20 19 19 18 18 18 18 17 16 15 15 14 13 12 13 13 11 12 15 16 15 12 12 11 10 9 8 7 7 7 9 10 11 12 13 15 17 19 20 21 22 21 20 21 21 20 18 17 17 17 18 19 19 18 17 15 14 13 12 13 14 15 14 14 15 16 17 18 18 18 19 19 19 20 21 21 21
13 14 16 19 22 22 21 20 19 18 18 17 17 17 17 17 16 15 13 13 13 12 11 11 11 11 11 12 12 11 10 10 9 8 8 9 9 9 10 12 13 13 15 17 20 21 21 22 22 21 20 21 20 18 18 18 17 16 17 17 17 17 17 16 15 13 12 14 15 15 14 14 14 15 16 18 18 19 20 20 20 21 22 22 21
12 13 15 19 20 20 19 18 17 17 16 15 14 15 16 16 16 15 13 13 12 12 11 10 9 9 8 8 8 8 8 8 8 8 9 11 11 12 12 14 14 14 15 19 21 21 21 21 21 20 20 20 19 18 18 17 16 16 16 15 14 15 15 15 14 13 13 15 16 15 14 15 15 15 15 16 17 18 20 20 21 23 23 22 21
14 14 15 17 18 18 18 17 15 13 11 10 10 13 14 14 15 16 15 15 14 13 12 11 10 8 8 7 7 7 8 8 8 8 10 12 11 11 13 14 14 13 14 17 19 19 19 19 20 19 18 18 18 18 17 16 16 15 15 13 13 13 13 13 13 13 14 16 17 17 17 18 17 16 16 17 17 18 20 21 22 23 23 22 21
13 14 15 16 17 18 17 16 13 11 9 7 8 10 13 13 14 14 14 15 16 15 14 13 12 10 9 8 8 9 9 9 9 10 11 11 10 10 12 13 14 13 13 14 15 16 16 17 17 17 16 16 16 16 16 15 15 15 13 13 13 13 13 12 12 12 13 16 19 19 18 19 19 18 18 19 19 20 21 22 22 22 22 22 21
10 11 12 14 15 16 16 15 12 10 8 7 8 9 8 8 8 8 10 14 16 15 14 14 13 12 11 10 10 10 10 10 10 12 11 11 12 12 13 15 16 16 15 14 14 16 17 17 17 17 16 14 14 14 14 14 14 13 12 13 14 14 14 15 14 13 13 16 18 19 18 19 19 19 18 18 19 20 20 21 21 21 22 22 21
8 8 9 10 11 13 14 14 12 10 9 8 9 8 5 5 4 3 4 13 17 14 13 15 15 15 14 12 11 10 9 10 12 13 12 12 13 14 15 17 18 18 18 17 17 18 19 18 16 16 15 14 13 13 13 13 13 13 12 13 14 14 15 16 17 16 16 17 19 19 19 20 20 19 19 19 19 20 19 20 21 21 21 21 21
8 8 7 7 7 8 9 10 10 10 7 5 6 5 5 4 3 5 3 9 16 15 14 16 17 16 14 12 10 9 8 8 10 10 11 12 12 14 17 19 20 20 20 19 18 18 17 16 14 14 14 13 13 13 14 14 14 14 14 13 13 12 12 13 15 16 17 18 19 19 19 19 19 19 19 19 19 19 19 20 20 20 20 20 20
8 8 7 7 8 7 7 7 7 8 7 6 5 5 5 3 1 4 5 4 11 15 16 17 16 15 14 11 8 6 7 7 4 4 8 12 14 15 17 18 18 18 18 18 17 17 16 15 14 14 13 13 13 13 13 13 13 14 15 15 14 14 13 13 15 16 17 17 18 18 18 18 19 18 19 19 18 19 19 19 19 19 20 20 21
6 7 7 7 9 9 8 7 7 7 7 6 5 6 6 4 2 1 2 3 11 18 20 20 18 15 13 11 7 5 6 10 9 7 11 15 16 15 15 16 16 16 15 15 15 15 14 13 12 12 13 12 12 12 11 10 11 13 14 15 15 16 15 14 15 16 16 17 17 18 18 19 19 19 19 18 18 18 19 19 18 19 20 21 21
4 5 6 7 8 9 9 8 7 6 6 7 6 5 6 5 4 2 0 3 11 19 21 19 16 13 10 6 4 3 5 9 13 14 17 17 16 16 17 17 18 18 17 16 16 15 14 13 12 12 12 12 11 11 11 9 10 12 13 13 13 15 15 15 15 16 16 16 17 18 19 19 18 18 17 17 17 18 18 18 18 19 20 20 21
3 3 5 6 7 9 8 8 8 7 6 7 7 7 9 9 7 5 2 5 11 17 18 16 13 10 6 4 2 4 7 9 12 14 16 16 17 18 19 18 18 17 16 15 15 14 13 13 13 12 11 11 10 11 11 10 9 10 11 11 12 13 15 16 16 15 15 16 17 18 19 18 16 16 16 16 16 17 18 18 17 18 18 18 18
4 4 5 4 6 8 8 7 8 9 8 6 7 9 11 12 10 7 3 5 8 14 16 14 12 10 9 8 8 11 12 12 13 14 16 16 17 18 17 16 15 14 13 12 10 10 10 11 11 11 11 10 9 9 10 9 8 9 9 10 12 13 14 15 15 14 16 17 17 17 16 15 15 15 15 15 16 17 17 17 16 16 16 17 17
3 5 7 6 6 8 9 8 7 8 8 7 6 9 13 12 10 8 5 2 5 10 13 13 13 14 13 12 12 14 15 15 16 16 16 16 16 15 14 13 13 12 11 10 8 7 8 9 9 8 8 8 8 8 8 7 7 7 8 9 12 13 14 14 13 14 17 19 17 16 15 15 15 16 15 15 16 17 16 16 15 15 15 16 17
4 5 8 8 8 9 10 9 7 6 7 7 8 11 12 11 10 8 5 2 2 6 10 12 14 15 14 13 13 14 16 16 16 15 14 14 14 12 11 10 10 10 10 9 8 8 8 8 8 7 7 7 7 7 7 7 7 8 8 9 10 11 12 13 13 15 17 18 16 15 16 16 16 16 15 15 15 15 15 15 14 14 14 16 16
9 6 8 8 7 9 11 10 7 7 6 8 11 11 10 11 12 9 5 5 6 5 8 13 15 14 14 14 13 14 15 15 13 12 11 11 11 10 8 7 6 6 6 7 8 8 8 8 7 8 8 7 7 7 7 6 6 7 7 7 8 10 11 13 14 15 16 16 16 17 19 20 18 16 14 14 13 13 13 13 13 13 14 15 15
13 8 8 8 8 9 10 9 8 8 8 11 12 10 8 9 10 7 5 7 10 9 9 12 13 13 15 16 15 14 14 13 11 11 11 10 9 8 7 5 4 5 6 7 7 7 7 7 6 7 6 6 7 7 7 5 4 5 6 7 8 10 12 14 15 15 16 16 18 20 22 22 19 15 13 12 12 12 12 13 13 14 14 14 15
14 11 9 11 12 11 10 8 6 7 10 10 9 7 4 5 7 7 7 10 13 12 10 12 15 16 17 17 15 14 14 13 12 12 12 10 8 6 4 5 6 7 8 8 7 6 6 7 6 6 5 5 6 6 5 4 3 4 6 8 10 12 14 14 14 15 16 18 20 23 24 22 18 14 11 11 11 11 12 13 13 13 14 15 17
15 13 11 11 12 12 11 8 7 8 8 7 6 6 7 8 10 10 11 11 11 10 10 14 17 17 16 15 13 13 13 12 11 11 10 8 7 6 6 8 10 9 8 7 6 5 5 6 6 6 6 6 5 5 4 4 4 5 8 10 12 14 14 14 14 16 18 20 23 25 24 21 17 13 10 10 11 12 12 13 13 14 16 18 19
14 12 10 10 12 13 11 9 8 8 6 5 6 8 10 12 14 14 12 10 9 10 13 16 17 16 15 15 15 14 13 11 11 10 9 8 9 9 10 10 9 8 6 6 5 4 4 4 5 6 6 6 6 6 4 4 5 7 9 12 13 13 13 14 16 19 21 23 25 25 23 19 16 13 11 11 12 13 13 13 15 16 18 19 19
13 11 9 8 10 13 12 10 9 9 7 6 7 9 11 13 14 13 12 12 12 14 15 16 16 16 16 15 13 12 12 11 10 9 9 9 9 9 8 6 6 6 5 5 5 4 4 3 3 3 4 5 6 7 6 5 6 9 11 12 12 13 14 16 19 21 24 25 25 23 20 17 15 13 12 12 13 13 14 16 17 18 18 19 19
Wind_Direction
188 189 191 189 188 190 190 191 192 193 194 194 191 190 190 193 195 194 195 196 194 193 192 194 197 199 201 200 198 198 201 208 205 200 211 211 197 209 226 214 218 232 238 237 244 258 259 242 237 242 246 255 264 265 254 247 267 283 272 250 243 253 256 246 243 259 281 294 305 319 327 329 327 329 333 334 337 342 339 335 337 338 337 333 334
189 188 188 189 190 192 192 192 194 197 198 195 192 193 195 196 196 193 192 193 195 193 191 195 200 201 200 197 198 206 204 199 207 210 212 214 208 213 220 210 211 222 230 239 248 256 260 254 249 255 258 251 252 259 258 259 282 309 308 251 250 276 282 267 264 264 282 302 314 321 326 327 325 329 336 336 337 341 339 334 334 335 335 332 334
189 188 188 190 192 191 192 194 195 197 197 193 193 194 194 197 197 193 191 192 196 198 194 196 201 200 200 201 206 214 206 196 205 213 211 216 218 219 224 225 225 228 233 237 243 254 260 261 260 267 269 261 261 264 257 261 279 303 338 309 285 314 324 298 298 291 300 316 321 322 323 323 323 328 335 331 330 334 332 329 332 337 342 340 334
188 188 189 193 193 190 191 194 195 197 198 195 196 197 193 195 197 197 194 190 193 199 197 195 199 199 200 205 209 208 200 196 204 210 211 218 224 225 228 234 233 229 233 239 241 249 257 260 261 265 265 266 277 278 258 259 275 284 299 316 326 326 314 309 322 325 319 316 316 316 318 320 323 330 333 329 328 328 325 326 327 328 331 335 337
187 187 190 192 191 188 189 193 194 197 200 199 199 199 195 195 198 199 196 190 189 195 197 197 200 199 200 204 206 206 205 206 208 208 212 221 225 228 232 235 236 231 234 243 247 251 256 258 259 263 265 265 275 282 268 268 275 273 288 308 318 321 317 313 313 317 314 312 312 315 318 322 327 331 330 323 319 316 317 323 325 325 329 338 347
188 186 190 192 191 190 192 194 194 196 200 201 202 202 199 198 198 198 202 202 194 191 196 202 203 198 200 204 207 212 214 214 210 207 212 222 225 227 229 231 238 239 240 247 251 254 260 262 260 258 258 258 258 262 266 271 274 271 281 296 302 305 308 312 316 318 315 313 312 313 320 326 327 327 331 331 323 312 314 329 340 344 345 347 347
188 186 189 192 193 194 195 196 197 198 201 203 203 202 201 198 196 198 204 206 202 195 193 201 206 202 201 204 210 215 213 211 213 213 214 221 224 225 227 233 240 241 244 248 250 256 263 269 273 270 268 265 260 257 258 263 268 269 270 278 293 302 302 305 317 320 317 316 315 314 318 323 323 325 335 344 340 331 335 349 353 350 346 342 342
188 186 187 189 192 194 195 196 199 202 204 205 206 206 202 200 198 199 202 206 208 205 196 196 205 206 204 207 209 212 213 212 216 219 218 220 224 226 227 236 244 248 253 255 253 260 266 269 276 274 271 269 261 255 251 253 259 256 254 260 264 272 288 296 303 307 309 312 314 315 318 320 324 329 336 341 347 352 356 353 348 344 341 337 336
185 184 186 188 190 192 194 196 200 204 207 207 209 210 205 203 202 200 201 206 210 208 204 204 206 205 207 212 212 212 215 214 215 220 221 220 223 228 232 242 251 252 258 264 268 273 272 275 283 276 270 270 262 254 247 246 254 251 241 250 263 272 282 286 289 297 304 308 309 312 317 318 323 330 333 335 342 345 342 341 340 339 335 330 330
182 183 185 188 189 191 195 197 197 203 209 207 208 213 211 206 207 204 201 206 207 203 205 208 207 205 208 211 211 211 213 215 217 221 222 221 226 233 237 241 246 249 257 270 279 279 274 282 292 281 271 273 266 257 250 250 258 255 251 269 286 290 293 294 297 300 301 299 299 302 307 311 316 323 326 329 335 338 339 340 339 336 335 334 331
167 162 162 173 182 188 196 202 201 202 206 202 206 213 211 203 207 208 205 205 205 202 206 211 210 210 211 210 209 208 208 212 217 221 223 225 230 233 230 229 241 252 258 272 286 285 283 287 273 221 228 249 253 252 253 259 265 261 263 279 289 292 300 304 304 301 295 291 292 294 299 304 313 322 326 330 337 340 340 340 340 338 339 336 326
97 102 118 145 168 181 193 202 207 211 212 206 203 204 190 173 190 204 206 207 208 206 207 211 212 213 214 209 204 204 207 211 217 222 225 225 228 229 224 224 242 259 272 296 301 289 277 250 192 206 223 225 241 252 250 251 253 254 261 274 280 288 304 312 312 307 301 296 293 296 300 303 310 321 328 332 335 335 334 334 336 336 332 327 316
110 139 161 174 182 188 195 202 208 212 213 211 206 201 191 175 174 183 191 200 202 191 181 185 192 200 206 203 200 203 207 212 217 223 225 226 227 226 219 217 231 259 289 304 305 272 237 200 183 193 203 210 231 246 242 241 247 257 264 267 284 320 333 336 335 323 313 306 301 304 309 310 311 317 323 327 329 330 330 331 333 333 327 322 317
152 173 187 197 202 202 204 208 211 213 213 212 209 205 204 197 184 178 179 188 189 172 161 167 171 174 183 195 205 209 212 216 219 222 224 225 224 222 218 216 225 257 273 271 245 177 178 183 182 178 175 198 219 224 234 250 257 264 268 263 6 28 11 1 12 10 1 6 359 348 348 341 328 316 311 315 322 328 331 333 336 336 330 326 325
157 175 198 210 217 217 215 213 213 215 216 217 217 214 211 206 195 189 189 193 193 180 170 173 173 163 163 183 202 210 215 218 219 218 221 222 219 217 216 212 209 210 202 180 154 150 156 158 162 164 167 179 194 209 236 268 275 276 282 282 56 47 18 7 30 39 25 29 13 351 347 340 331 322 317 318 324 335 341 342 345 344 340 340 341
140 161 201 219 226 230 226 221 219 219 219 219 219 219 215 207 197 199 205 207 204 196 189 184 181 178 174 180 193 202 208 213 214 213 215 216 211 205 198 193 194 189 170 152 142 145 149 155 153 150 158 169 174 200 227 282 311 314 316 315 331 27 27 17 27 8 347 343 340 341 346 345 339 338 339 344 352 358 359 360 1 359 355 353 352
139 164 193 214 224 229 228 225 223 221 220 220 218 218 217 205 197 206 210 207 201 193 192 190 187 187 185 185 192 196 197 203 208 207 206 205 198 186 175 177 181 174 160 151 149 148 147 154 161 155 149 139 90 341 326 331 330 329 327 331 349 39 113 306 314 322 332 343 1 17 16 7 6 7 7 12 15 15 15 13 11 9 3 358 349
162 181 202 213 218 225 227 225 223 222 223 220 213 211 206 187 182 193 199 203 206 191 178 176 175 178 180 181 187 192 191 196 203 206 205 201 190 179 176 177 173 167 160 153 147 146 141 136 136 135 98 48 21 4 350 340 329 322 341 40 62 68 304 317 329 345 8 28 41 43 35 27 27 21 23 27 24 23 23 17 10 7 5 360 345
168 187 214 217 210 210 222 226 227 227 226 218 201 191 187 178 179 188 196 203 203 180 168 168 164 165 171 173 176 181 182 185 191 196 198 197 191 185 184 181 171 161 158 155 149 142 130 115 97 80 65 49 40 34 24 12 6 69 133 131 109 43 9 18 28 32 37 42 47 51 50 42 33 39 45 40 28 23 23 16 8 5 5 360 350
157 181 212 222 204 190 207 221 227 228 223 212 193 178 176 179 188 193 193 190 174 157 159 162 155 152 157 159 157 157 161 164 168 179 184 184 184 186 187 184 173 161 155 153 149 139 122 99 76 67 65 62 63 65 69 79 91 93 91 94 87 72 62 56 48 38 37 47 55 59 59 52 47 47 43 32 25 25 26 25 22 19 11 360 354
121 148 176 204 212 205 195 195 211 219 211 191 169 157 158 162 170 176 175 168 157 151 153 153 146 140 139 140 134 126 128 133 139 156 170 170 170 174 174 169 163 155 149 145 140 133 126 106 74 67 77 87 86 88 92 93 92 85 79 80 83 74 61 51 45 43 48 56 59 60 59 54 46 34 22 22 26 24 22 22 20 17 13 6 1
101 113 125 136 154 169 155 151 170 180 172 160 151 147 148 150 153 159 163 162 159 151 143 138 135 129 125 124 120 115 114 115 116 125 139 148 152 155 153 148 147 149 147 142 135 127 122 115 99 91 97 105 103 99 93 86 84 81 76 75 74 62 55 53 51 49 52 57 59 56 51 44 34 23 19 25 24 16 10 6 359 356 359 2 3
96 97 99 103 107 113 118 124 130 128 124 129 132 131 134 138 142 146 149 151 149 140 130 129 129 123 116 111 108 107 105 101 101 104 110 120 129 135 137 135 135 141 140 132 125 121 114 110 108 105 105 106 103 98 90 87 85 75 67 71 75 67 62 62 59 55 55 57 54 49 42 36 29 22 22 25 23 14 4 354 347 348 354 1 9
95 93 92 93 97 103 107 108 108 107 107 111 115 116 120 125 130 133 136 137 134 127 125 127 127 120 114 110 105 102 97 92 90 90 93 107 116 120 125 126 126 132 133 126 122 122 116 111 108 106 106 103 99 95 91 89 82 68 66 78 75 59 56 58 57 57 56 51 46 43 38 33 28 26 26 26 18 5 357 354 356 2 7 13 21
98 97 95 94 97 101 103 102 101 100 103 107 108 108 110 115 119 124 127 127 126 125 125 127 125 122 120 116 108 101 97 95 92 85 84 102 114 116 120 121 118 121 125 125 125 123 119 117 115 114 111 103 99 95 87 80 71 63 71 84 74 56 56 58 55 57 55 47 41 40 37 32 28 24 20 15 7 2 5 8 11 13 15 17 23
102 105 103 99 96 94 94 95 94 94 97 102 106 108 111 113 115 119 122 122 124 128 131 131 129 128 127 123 116 111 111 110 107 100 93 97 107 114 125 127 119 119 126 127 124 118 116 120 125 125 118 107 106 97 75 61 63 72 84 93 88 77 69 61 58 58 53 46 42 39 36 33 28 17 11 13 15 17 17 13 9 11 13 12 14
114 114 112 108 103 99 97 95 92 91 91 95 100 103 106 107 108 112 120 127 131 134 136 136 139 139 136 130 127 127 125 120 116 108 93 84 92 105 122 130 130 129 127 126 128 127 125 120 110 99 89 96 117 109 75 64 70 79 86 92 87 76 66 62 65 60 49 44 45 41 36 34 27 20 19 21 22 22 20 13 10 10 10 8 10
124 127 128 124 117 114 113 108 100 95 93 92 92 93 94 95 93 92 104 120 128 134 139 141 145 148 145 139 135 131 125 121 117 104 84 74 80 92 100 102 99 91 92 107 119 122 119 104 88 83 85 87 91 92 83 76 74 75 77 79 75 64 55 56 61 54 43 42 46 42 37 33 27 24 26 24 22 22 19 14 13 12 9 11 14
110 119 125 126 123 120 118 117 114 110 106 99 92 87 87 90 88 86 91 104 117 133 148 156 161 160 154 150 146 134 121 112 106 96 86 79 80 88 89 85 82 78 79 91 102 101 94 88 84 85 84 81 78 78 76 74 70 68 68 66 60 52 47 50 52 44 34 37 44 41 36 31 26 26 29 26 23 22 20 17 17 16 16 17 18
103 98 92 103 119 123 119 118 118 117 115 110 101 94 89 87 89 87 87 92 99 113 130 144 158 166 163 157 150 136 120 111 105 98 93 88 86 91 91 88 83 78 75 81 89 91 88 83 80 79 77 74 72 71 68 66 64 63 62 58 53 50 52 53 46 33 29 39 44 40 32 27 27 29 29 25 23 22 21 20 19 18 19 21 19
103 91 86 104 122 126 123 122 121 119 119 118 114 109 99 90 86 85 86 90 92 95 101 108 121 144 153 147 138 127 116 110 106 102 101 101 101 100 96 90 85 81 82 86 88 88 85 80 77 75 74 71 69 67 65 63 61 59 58 56 54 53 51 45 33 27 34 42 41 34 28 27 30 32 28 25 24 23 21 21 21 21 21 20 16
108 94 93 110 124 127 125 125 124 123 124 124 124 122 114 104 96 90 87 89 88 87 91 95 101 114 126 128 126 121 113 108 107 110 114 115 113 111 104 93 85 85 89 90 86 82 80 77 74 72 72 70 68 67 65 62 60 58 55 53 54 51 43 35 32 37 42 36 30 30 33 34 34 32 28 25 23 21 20 21 21 20 16 13 10
123 111 104 112 122 126 129 130 129 128 129 131 134 135 130 124 121 115 106 98 92 88 86 86 91 99 105 110 112 109 108 110 112 120 126 121 114 112 107 95 87 88 92 90 85 81 78 76 74 72 72 70 67 65 62 60 58 56 51 48 50 47 37 32 35 40 37 30 29 33 34 30 26 23 20 20 19 18 19 19 16 12 9 6 3
125 123 120 121 122 124 129 131 130 129 132 138 148 153 151 143 138 135 129 120 112 104 95 89 89 92 97 105 108 103 107 117 123 130 133 124 113 111 109 98 90 89 88 85 83 82 80 78 75 72 72 71 67 63 62 59 55 52 48 46 47 43 35 33 39 38 33 33 36 37 34 31 30 27 25 25 24 23 21 18 12 8 5 2 358
121 122 128 131 127 125 127 128 126 128 130 122 122 140 154 158 154 150 144 133 124 118 111 103 96 94 99 109 115 116 118 124 132 138 133 118 105 109 118 114 104 94 85 82 84 84 82 80 76 72 71 71 65 61 61 58 52 49 47 43 41 38 33 35 42 43 39 38 39 39 40 41 41 38 35 32 29 25 19 14 9 4 359 355 352
125 122 128 133 132 129 129 127 124 123 119 104 98 110 130 146 149 152 157 152 141 130 125 119 106 98 102 109 112 117 119 120 128 133 125 108 95 96 109 116 111 99 89 87 89 86 82 81 78 71 68 67 63 58 57 54 48 45 44 40 38 39 41 43 44 42 38 40 41 40 40 39 36 34 32 28 23 18 14 9 5 0 355 351 348
137 126 125 134 141 138 134 134 136 133 117 104 104 103 97 103 97 72 147 161 157 146 138 132 116 102 103 102 93 93 99 107 116 117 108 97 90 86 94 105 105 96 91 91 90 87 83 81 80 75 69 68 66 61 57 54 49 46 45 42 41 45 49 51 51 49 46 46 44 41 37 33 30 28 26 21 16 13 8 2 358 354 350 348 345
161 148 135 132 140 147 149 153 161 165 161 142 124 110 93 93 63 3 22 147 157 156 146 135 119 109 109 101 81 71 79 98 117 117 99 90 91 91 94 100 99 93 90 87 86 85 82 76 76 77 72 69 70 66 60 56 53 49 44 41 41 43 45 48 52 52 49 45 41 37 34 30 25 21 18 14 10 5 360 355 351 346 343 342 341
180 172 161 145 138 142 144 144 152 163 172 176 172 163 151 132 80 347 3 105 140 145 142 138 130 124 124 116 97 80 69 59 71 118 105 96 99 99 93 91 92 92 91 88 84 85 84 79 77 79 74 70 69 64 57 54 53 49 46 49 53 53 49 47 48 47 42 36 31 27 24 21 16 11 8 5 1 357 352 349 346 342 338 336 334
202 194 187 170 156 150 145 143 149 153 156 163 169 168 168 168 156 90 5 78 119 126 132 137 136 133 132 126 112 101 71 45 45 93 113 103 98 97 91 88 90 94 93 89 85 83 81 77 73 71 67 64 62 56 50 50 50 46 47 54 60 58 52 46 40 37 34 29 24 19 15 11 7 3 360 357 353 349 346 343 341 339 335 332 331
217 206 199 188 174 164 157 158 165 166 168 182 189 181 179 190 188 170 129 107 121 124 128 131 133 132 132 120 91 97 93 67 69 93 105 98 93 96 97 95 95 95 92 89 86 82 79 76 74 69 65 65 63 55 49 48 47 46 49 53 53 50 44 38 32 29 25 21 17 11 7 3 360 356 351 347 344 343 341 339 338 336 334 333 333
222 212 200 196 188 180 172 172 181 183 176 185 208 216 207 197 184 164 99 84 116 129 130 126 122 115 99 75 95 143 132 101 88 94 98 95 98 102 101 97 94 93 93 91 87 82 80 79 78 73 67 65 62 54 50 51 52 52 54 52 44 38 36 34 32 28 20 12 5 360 357 356 353 348 344 341 340 340 339 337 335 334 333 334 335
230 219 198 192 193 192 188 188 191 193 196 218 238 224 200 182 168 159 129 73 102 129 132 122 110 98 82 80 109 127 121 109 104 103 98 98 103 104 101 98 93 89 91 95 91 84 79 76 76 73 66 62 59 52 49 55 58 55 52 45 36 32 30 31 31 24 13 6 2 359 358 356 350 345 342 340 339 339 337 335 335 334 333 332 331
220 207 198 202 208 206 206 209 210 214 226 235 211 171 160 153 142 143 150 96 93 123 132 123 109 104 99 94 98 107 109 108 108 105 100 100 104 103 101 100 95 87 87 90 88 81 73 69 71 73 67 64 62 55 49 50 52 49 42 33 27 27 28 29 26 16 7 5 6 5 0 353 347 345 343 341 339 339 338 337 335 333 331 330 329
190 197 202 209 223 229 224 219 219 227 228 206 166 149 147 143 134 135 159 190 119 116 126 125 117 111 109 104 98 103 111 113 109 105 100 99 101 102 104 106 102 95 90 86 82 79 73 66 64 66 63 58 56 50 43 39 37 35 27 18 18 24 29 28 19 7 4 6 9 6 360 354 349 345 341 339 339 339 338 337 335 332 331 330 328
194 189 185 189 211 228 223 218 231 243 218 172 150 144 140 136 135 135 153 190 194 172 137 129 126 121 120 121 115 110 113 113 109 106 105 101 100 101 102 102 105 105 96 88 86 84 76 69 67 66 61 56 53 48 40 30 26 26 24 21 22 24 23 18 9 4 6 10 10 5 359 354 351 346 340 339 339 338 337 336 334 331 330 328 326
201 192 179 185 203 213 212 219 237 230 190 156 140 135 131 133 139 143 142 152 162 161 141 130 128 124 123 124 120 112 109 110 111 114 115 111 103 97 88 78 87 100 97 91 89 85 76 69 63 58 54 55 57 54 44 34 32 33 28 24 22 17 13 9 6 5 7 7 3 359 356 354 353 350 344 340 339 337 335 334 332 330 329 327 327
201 199 197 205 210 206 205 210 204 175 162 153 142 137 144 160 169 175 163 141 131 123 119 125 127 124 121 121 119 115 112 113 116 121 121 114 102 90 74 70 86 99 100 94 90 87 80 70 61 56 56 55 56 56 51 41 38 31 19 13 12 10 7 6 5 5 4 0 355 352 352 353 354 353 345 340 339 337 333 331 329 328 328 328 327
205 209 210 207 200 195 195 194 171 147 142 150 160 172 191 192 177 164 159 151 135 121 124 131 130 126 123 122 123 124 123 120 119 118 112 100 89 86 89 94 99 104 105 97 89 89 88 78 68 66 65 57 49 50 46 26 14 11 7 6 6 4 3 3 3 360 356 351 347 346 348 352 354 350 343 339 337 334 331 330 328 325 325 326 327
206 209 202 188 179 177 176 173 170 165 162 176 195 198 191 177 158 142 142 152 150 135 130 131 130 129 129 128 129 130 131 128 123 115 106 103 108 112 113 111 109 107 106 96 82 78 88 87 73 67 68 61 47 37 30 16 5 0 359 1 2 2 1 360 356 352 347 344 343 344 348 351 350 345 340 338 336 334 332 329 324 321 322 324 325
208 203 191 177 174 177 173 163 164 174 185 192 183 166 155 150 144 137 141 152 150 136 129 129 131 135 137 137 138 138 137 134 131 126 123 122 122 120 117 107 93 86 89 87 75 65 67 63 44 40 52 55 39 29 25 15 360 355 355 358 0 359 357 353 348 344 342 342 344 348 354 356 351 344 339 336 333 330 328 323 318 318 320 322 322